Weather Roundup
Issued by NWS Corpus Christi, TX

Home | Current Version | Previous Version | Text Only | Print | Product List | Glossary On
Versions: 1 2 3 4 5 6 7 8 9 10 11 12 13 14 15 16 17 18 19 20 21 22 23 24 25 26 27 28 29 30 31 32 33 34 35 36 37 38 39 40 41 42 43 44 45 46 47 48 49 50
000
ASUS44 KCRP 160810
HRRCRP

SOUTH TEXAS REGIONAL WEATHER ROUNDUP
NATIONAL WEATHER SERVICE CORPUS CHRISTI TX
200 AM CST TUE JAN 16 2018


TXZ229>244-160900-
...CORPUS CHRISTI AREA OBSERVATIONS...

CITY           SKY/WX    TMP DP  RH WIND       PRES   REMARKS
CORPUS CHRISTI LGT RAIN  60  57  89 N6        30.29R
NAS CORPUS CHR CLOUDY    62  56  80 CALM      30.29R
ROCKPORT       CLOUDY    59  55  87 CALM      30.29R
KINGSVILLE ARP CLOUDY    57  55  91 NW3       30.30R
KINGSVILLE NAS CLOUDY    57  53  86 N6        30.29R
ALICE          CLOUDY    58  51  78 NE5       30.29S
$$

...VICTORIA AREA OBSERVATIONS...

CITY           SKY/WX    TMP DP  RH WIND       PRES   REMARKS
PORT LAVACA    CLOUDY    54  51  92 N3        30.31R
VICTORIA       LGT RAIN  43  40  89 N20G28    30.39R FOG
BEEVILLE       CLOUDY    49  44  83 N25G35    30.36R
PLEASANTON     LGT RAIN  40  38  91 NE14G25   30.44R WCI  33
SAN ANTONIO    LGT RAIN  38  34  85 N21G31    30.45S WCI  28
$$

...LAREDO AREA OBSERVATIONS...

CITY           SKY/WX    TMP DP  RH WIND       PRES   REMARKS
LAREDO         CLOUDY    59  52  77 E7        30.29R
COTULLA        CLOUDY    54  45  71 N26G35    30.35R
DEL RIO        CLOUDY    43  28  55 N14G23    30.48R
MCALLEN        CLOUDY    64  54  69 E10       30.25R
HEBBRONVILLE   CLOUDY    56  51  85 CALM      30.30R
$$

...OTHER TEXAS OBSERVATIONS...

CITY           SKY/WX    TMP DP  RH WIND       PRES   REMARKS
BROWNSVILLE    CLOUDY    64  56  75 E6        30.25S
HOUSTON        RAIN      52  51  97 N15       30.38R FOG
COL. STATION   FLURRIES  33  30  88 N25G33    30.52R WCI  20
AUSTIN         LGT RAIN  33  33 100 N22G35    30.54R FOG     WCI  21
WACO           CLOUDY    29  22  75 N22G28    30.61R WCI  15
FORT WORTH     CLOUDY    27   7  42 N24       30.65R WCI  12
WICHITA FALLS  PTCLDY    19   2  47 N15       30.74R WCI   5
LUBBOCK        MOCLDY    21  -2  36 NE15      30.60S WCI   8
EL PASO        PTCLDY    32  20  61 E14       30.41R WCI  22
$$

...MARINE OBSERVATIONS...

STATION/POSITION TIME  SKY/WX   TEMP    WIND        PRES    VSBY  WAVE   SWELL
                                AIR SEA DIR/SP/G                  HT/PER HT/PER
                 (UTC)          (F)     (DEG/KT/KT) (MB)    (MI)  (FT/S) (FT/S)
PORT ARANSAS     NOT AVBL
BUOY 90 E PORT A 0650            67 72  120/ 14/ 16 1025.8          3/ 4
BUOY 200 E PT IS 0650            68 73  110/ 10/ 14 1025.7          2/ 6   2/ 6
BUOY 15 E GALVES 0650            56 53  110/  8/ 10 1026.5          2/ 4
$$




USA.gov is the U.S. government's official web portal to all federal, state and local government web resources and services.